Location: Unspecified
(0.0000°N, 0.0000°E)
Time: 21:55:58
(UTC+01:00)

HO-68 - Visible Passes

Search period start: 23 January 2017 00:00
Search period end: 02 February 2017 00:00
Orbit: 1193 x 1204 km, 100.1° (Epoch: 23 January)

Date Brightness Start Highest point End Pass type
(mag) Time Alt. Az. Time Alt. Az. Time Alt. Az.
23 Jan ? 19:35:08 10° SE 19:41:21 32° ENE 19:47:31 10° NNE visible
23 Jan ? 21:22:47 10° SSW 21:28:44 28° WSW 21:34:41 10° NW visible
24 Jan ? 21:05:15 10° S 21:11:53 41° WSW 21:18:30 10° NW visible
25 Jan ? 20:48:00 10° S 20:55:02 58° WSW 21:02:03 10° NNW visible
26 Jan ? 20:30:57 10° S 20:38:10 81° WSW 20:45:22 10° NNW visible
27 Jan ? 20:14:06 10° SSE 20:21:18 74° ENE 20:28:28 10° N visible
27 Jan ? 22:07:26 10° WSW 22:08:36 10° WSW 22:09:46 10° W visible
28 Jan ? 19:57:29 10° SSE 20:04:27 52° ENE 20:11:22 10° N visible
28 Jan ? 21:47:34 10° SW 21:51:48 17° WSW 21:56:02 10° WNW visible
29 Jan ? 19:41:06 10° SE 19:47:35 37° ENE 19:54:01 10° NNE visible
29 Jan ? 21:29:24 10° SSW 21:34:58 25° WSW 21:40:32 10° NW visible
30 Jan ? 21:11:44 10° SSW 21:18:07 35° WSW 21:24:31 10° NW visible
31 Jan ? 20:54:22 10° S 21:01:16 50° WSW 21:08:09 10° NNW visible
01 Feb ? 20:37:14 10° S 20:44:24 71° WSW 20:51:33 10° NNW visible
